sat.trackr.live / text

‹ back to catalog

STARLINK-5804

NORAD 55788 · 2023-028AZ

PAYLOAD ACTIVE UNKNOWN

§ Identity

Operator
Country
US
Launch date
2023-03-03
Launch site
AFWTR
Launch vehicle
Mass (kg)
RCS (m²)

Purposes: comms

External: N2YO · Heavens-Above · Gunter

§ Orbital elements

Epoch: 2026-05-25T01:31:15.752064Z

Period
96.11 min
Inclination
69.9995°
Eccentricity
0.0002602
Mean motion
14.98334703 rev/d
Perigee alt
570.2 km
Apogee alt
573.8 km
Semi-major
6,950.2 km
B*
3.4501e-5
RAAN
11.9973°
Arg perigee
270.9404°
Mean anomaly
89.1457°
Rev number
17,846

§ Raw data

STARLINK-58041 55788U 23028AZ  26145.06337676  .00000319  00000+0  34501-4 0  99932 55788  69.9995  11.9973 0002602 270.9404  89.1457 14.98334703178460

JSON: /api/v1/satellites/55788 · /tle

For live sub-satellite position, see the globe view (requires WebGL).

§ Visibility from observer

Set your observer location to see the next 7 days of passes ≥ 10°. The values pass through the URL so the page stays shareable.

No JS? Fill the form by hand. The geolocation button needs JavaScript.